Preview of NWS' New Version of Forecast
This preview is not operational and should not be used for support decisions.

Regional Weather Roundup (RWR)

Issued by National Weather Service (NWS)

                            
000
ASUS46 KPQR 231910
RWROR 

OREGON REGIONAL WEATHER ROUNDUP
NATIONAL WEATHER SERVICE PORTLAND OR
1200 PM PDT SUN JUN 23 2019

NOTE: "FAIR" INDICATES FEW OR NO CLOUDS BELOW 12,000 FEET WITH
NO SIGNIFICANT WEATHER AND/OR OBSTRUCTIONS TO VISIBILITY.

ORZ001>013-232000-
NORTHWEST OREGON

  
CITY           SKY/WX    TMP DP  RH WIND       PRES   REMARKS
ASTORIA        LGT RAIN  56  53  90 W8        30.24S                  
TILLAMOOK      CLOUDY    61  50  67 NW3       30.26F                  
NEWPORT        CLOUDY    59  50  72 NW10      30.28F                  
PORTLAND       PTSUNNY   64  46  52 N5        30.23F                  
VANCOUVER WA   CLOUDY    62  46  55 NW5       30.22F                  
SCAPPOOSE      CLOUDY    62  48  60 CALM      30.21F                  
HILLSBORO      CLOUDY    63  47  55 CALM      30.21F                  
AURORA         CLOUDY    65  47  52 VRB3      30.23F                  
MCMINNVILLE    CLOUDY    63  48  58 VRB3      30.22S                  
SALEM          CLOUDY    64  47  53 CALM      30.21F                  
CORVALLIS      CLOUDY    65  49  56 W6        30.22F                  
EUGENE         PTSUNNY   69  48  47 VRB7      30.21F                  
$$

ORZ021-028-232000-
SOUTHWEST OREGON

  
CITY           SKY/WX    TMP DP  RH WIND       PRES   REMARKS
NORTH BEND     SUNNY     62  50  64 N22       30.25S                  
BROOKINGS      SUNNY     77  52  41 W8        30.09S                  
ROSEBURG       MOSUNNY   66  52  60 VRB3      30.20F                  
SEXTON SUMMIT  SUNNY     64  46  52 VRB5      30.22S                  
GRANTS PASS    FAIR      73  45  35 VRB5      30.17F                  
MEDFORD        SUNNY     75  35  23 CALM      30.14F                  
$$

ORZ014>016-041-232000-
COLUMBIA GORGE

  
CITY           SKY/WX    TMP DP  RH WIND       PRES   REMARKS
TROUTDALE      CLOUDY    63  47  55 VRB5      30.23S                  
HOOD RIVER     PTSUNNY   64  45  48 NW15G24   30.16F                  
THE DALLES     SUNNY     68  46  45 NW24G31   30.11F                  
$$

ORZ029>031-041-044-049-050-061>064-502-503-505>511-232000-
EASTERN OREGON

  
CITY           SKY/WX    TMP DP  RH WIND       PRES   REMARKS
MADRAS         SUNNY     68  37  32 NW9       30.15S                  
REDMOND        SUNNY     69  36  29 W9        30.13F                  
BEND           SUNNY     68  32  26 NW14      30.13F                  
PRINEVILLE     SUNNY     64  34  32 N8G16     30.13F                  
KLAMATH FALLS  SUNNY     72  31  22 NW9       30.16F                  
LAKEVIEW       SUNNY     68  37  32 SE10      30.16F                  
HERMISTON      CLOUDY    75  44  33 SW15G23   30.02F                  
PENDLETON      PTSUNNY   73  43  33 SW14G21   30.05F                  
JOHN DAY       SUNNY     65  37  35 W12G17    30.11S                  
MEACHAM        CLOUDY    55  42  61 VRB3      30.11S                  
LA GRANDE      CLOUDY    61  43  51 W8        30.10F                  
BAKER CITY     SUNNY     65  42  43 N18G24    30.08S                  
BURNS          SUNNY     70  29  21 W17       30.10F                  
ROME             N/A     75  27  17 N9G18     30.07S                  
ONTARIO        SUNNY     77  35  21 MISG      30.02F                  
$$